Time,TemperatureF,DewpointF,PressureIn,WindDirection,WindDirectionDegrees,WindSpeedMPH,WindSpeedGustMPH,Humidity,HourlyPrecipIn,Conditions,Clouds,dailyrainin,SoftwareType,DateUTC
2013-05-28 00:02:00,67.0,64.0,29.95,SSE,149,0.0,0.0,90,0.00,,,0.84,,2013-05-28 05:02:00,
2013-05-28 00:12:00,67.0,64.0,29.95,SSE,149,0.0,0.0,90,0.00,,,0.84,,2013-05-28 05:12:00,
2013-05-28 00:22:00,67.0,64.0,29.95,South,171,0.0,0.0,90,0.00,,,0.84,,2013-05-28 05:22:00,
2013-05-28 00:33:00,67.0,64.0,29.96,SSE,159,0.0,0.0,89,0.00,,,0.84,,2013-05-28 05:33:00,
2013-05-28 00:42:00,67.0,64.0,29.96,SSE,159,0.0,0.0,89,0.00,,,0.84,,2013-05-28 05:42:00,
2013-05-28 00:52:00,67.0,63.0,29.96,SSW,196,0.0,0.0,88,0.00,,,0.84,,2013-05-28 05:52:00,
2013-05-28 01:02:00,67.0,63.0,29.96,SSE,159,0.0,0.0,88,0.00,,,0.84,,2013-05-28 06:02:00,
2013-05-28 01:12:00,67.0,63.0,29.96,SSE,159,0.0,0.0,88,0.00,,,0.84,,2013-05-28 06:12:00,
2013-05-28 01:21:00,67.0,63.0,29.96,SE,144,0.0,0.0,88,0.00,,,0.84,,2013-05-28 06:21:00,
2013-05-28 01:32:00,67.0,64.0,29.96,SSE,163,0.0,0.0,89,0.00,,,0.84,,2013-05-28 06:32:00,
2013-05-28 01:42:00,67.0,64.0,29.96,SSE,163,0.0,0.0,89,0.00,,,0.84,,2013-05-28 06:42:00,
2013-05-28 01:51:00,66.0,63.0,29.96,South,169,0.0,0.0,89,0.00,,,0.84,,2013-05-28 06:51:00,
2013-05-28 02:01:00,66.0,63.0,29.96,South,169,0.0,0.0,90,0.00,,,0.84,,2013-05-28 07:01:00,
2013-05-28 02:11:00,66.0,63.0,29.96,South,169,0.0,0.0,90,0.00,,,0.84,,2013-05-28 07:11:00,
2013-05-28 02:21:00,66.0,63.0,29.96,SSE,168,0.0,0.0,90,0.00,,,0.84,,2013-05-28 07:21:00,
2013-05-28 02:32:00,66.0,63.0,29.96,SSE,166,0.0,0.0,90,0.00,,,0.84,,2013-05-28 07:32:00,
2013-05-28 02:42:00,66.0,63.0,29.96,SSE,166,0.0,0.0,90,0.00,,,0.84,,2013-05-28 07:42:00,
2013-05-28 02:52:00,66.0,63.0,29.95,South,191,0.0,0.0,90,0.00,,,0.84,,2013-05-28 07:52:00,
2013-05-28 03:02:00,67.0,64.0,29.94,South,169,0.0,1.0,89,0.00,,,0.84,,2013-05-28 08:02:00,
2013-05-28 03:11:00,67.0,64.0,29.94,South,169,0.0,1.0,89,0.00,,,0.84,,2013-05-28 08:11:00,
2013-05-28 03:22:00,67.0,63.0,29.93,SSE,149,0.0,0.0,87,0.00,,,0.84,,2013-05-28 08:22:00,
2013-05-28 03:32:00,67.0,63.0,29.94,SSE,152,0.0,1.0,87,0.00,,,0.84,,2013-05-28 08:32:00,
2013-05-28 03:42:00,67.0,63.0,29.94,SSE,152,0.0,1.0,87,0.00,,,0.84,,2013-05-28 08:42:00,
2013-05-28 03:51:00,67.0,63.0,29.93,SSE,159,0.0,4.0,87,0.00,,,0.84,,2013-05-28 08:51:00,
2013-05-28 04:01:00,67.0,63.0,29.93,SE,132,0.0,0.0,87,0.00,,,0.84,,2013-05-28 09:01:00,
2013-05-28 04:11:00,67.0,63.0,29.93,SE,132,0.0,0.0,87,0.00,,,0.84,,2013-05-28 09:11:00,
2013-05-28 04:21:00,68.0,64.0,29.93,South,175,0.0,1.0,87,0.00,,,0.84,,2013-05-28 09:21:00,
2013-05-28 04:33:00,68.0,64.0,29.93,SSW,201,0.0,3.0,87,0.00,,,0.84,,2013-05-28 09:33:00,
2013-05-28 04:42:00,68.0,64.0,29.93,SSW,201,0.0,3.0,87,0.00,,,0.84,,2013-05-28 09:42:00,
2013-05-28 04:53:00,68.0,64.0,29.92,South,183,1.0,6.0,87,0.00,,,0.84,,2013-05-28 09:53:00,
2013-05-28 05:03:00,68.0,64.0,29.94,South,178,0.0,7.0,87,0.00,,,0.84,,2013-05-28 10:03:00,
2013-05-28 05:12:00,68.0,64.0,29.94,South,178,0.0,7.0,87,0.00,,,0.84,,2013-05-28 10:12:00,
2013-05-28 05:23:00,68.0,64.0,29.94,South,179,0.0,0.0,87,0.00,,,0.84,,2013-05-28 10:23:00,
2013-05-28 05:32:00,68.0,64.0,29.93,SSE,163,0.0,0.0,87,0.00,,,0.84,,2013-05-28 10:32:00,
2013-05-28 05:42:00,68.0,64.0,29.93,SSE,163,0.0,0.0,87,0.00,,,0.84,,2013-05-28 10:42:00,
2013-05-28 05:53:00,68.0,64.0,29.95,SSE,155,0.0,5.0,87,0.00,,,0.84,,2013-05-28 10:53:00,
2013-05-28 06:02:00,68.0,64.0,29.96,SSE,163,0.0,7.0,87,0.00,,,0.84,,2013-05-28 11:02:00,
2013-05-28 06:11:00,68.0,64.0,29.96,SSE,163,0.0,7.0,87,0.00,,,0.84,,2013-05-28 11:11:00,
2013-05-28 06:22:00,68.0,64.0,29.97,SSW,195,0.0,6.0,88,0.00,,,0.84,,2013-05-28 11:22:00,
2013-05-28 06:32:00,68.0,64.0,29.98,South,172,0.0,0.0,88,0.00,,,0.84,,2013-05-28 11:32:00,
2013-05-28 06:42:00,68.0,64.0,29.98,South,172,0.0,0.0,88,0.00,,,0.84,,2013-05-28 11:42:00,
2013-05-28 06:52:00,68.0,64.0,29.98,SSW,207,0.0,0.0,88,0.00,,,0.84,,2013-05-28 11:52:00,
2013-05-28 07:01:00,69.0,65.0,29.98,South,191,0.0,0.0,88,0.00,,,0.84,,2013-05-28 12:01:00,
2013-05-28 07:11:00,69.0,65.0,29.98,South,191,0.0,0.0,88,0.00,,,0.84,,2013-05-28 12:11:00,
2013-05-28 07:21:00,69.0,65.0,29.98,South,186,0.0,0.0,88,0.00,,,0.84,,2013-05-28 12:21:00,
2013-05-28 07:32:00,69.0,65.0,29.98,South,177,0.0,0.0,88,0.00,,,0.84,,2013-05-28 12:32:00,
2013-05-28 07:42:00,69.0,65.0,29.98,South,177,0.0,0.0,88,0.00,,,0.84,,2013-05-28 12:42:00,
2013-05-28 07:52:00,70.0,66.0,29.98,South,171,0.0,11.0,87,0.00,,,0.84,,2013-05-28 12:52:00,
2013-05-28 08:01:00,71.0,67.0,29.97,South,176,2.0,10.0,86,0.00,,,0.84,,2013-05-28 13:01:00,
2013-05-28 08:11:00,71.0,67.0,29.97,South,176,2.0,10.0,86,0.00,,,0.84,,2013-05-28 13:11:00,
2013-05-28 08:21:00,71.0,66.0,29.97,SSW,207,6.0,11.0,84,0.00,,,0.84,,2013-05-28 13:21:00,
2013-05-28 08:32:00,71.0,66.0,29.98,South,185,8.0,14.0,84,0.00,,,0.84,,2013-05-28 13:32:00,
2013-05-28 08:42:00,71.0,66.0,29.98,South,185,8.0,14.0,84,0.00,,,0.84,,2013-05-28 13:42:00,
2013-05-28 08:52:00,72.0,67.0,29.99,SSW,193,6.0,12.0,84,0.00,,,0.84,,2013-05-28 13:52:00,
2013-05-28 09:02:00,72.0,67.0,29.99,South,188,7.0,12.0,84,0.00,,,0.84,,2013-05-28 14:02:00,
2013-05-28 09:11:00,72.0,67.0,29.99,South,188,7.0,12.0,84,0.00,,,0.84,,2013-05-28 14:11:00,
2013-05-28 09:21:00,73.0,68.0,29.98,SW,215,4.0,13.0,84,0.00,,,0.84,,2013-05-28 14:21:00,
2013-05-28 09:32:00,73.0,68.0,29.98,SSW,207,9.0,14.0,83,0.00,,,0.84,,2013-05-28 14:32:00,
2013-05-28 09:42:00,73.0,68.0,29.98,SSW,207,9.0,14.0,83,0.00,,,0.84,,2013-05-28 14:42:00,
2013-05-28 09:52:00,74.0,68.0,29.98,SSW,213,8.0,13.0,82,0.00,,,0.84,,2013-05-28 14:52:00,
2013-05-28 10:01:00,74.0,68.0,29.98,SSW,213,8.0,13.0,82,0.00,,,0.84,,2013-05-28 15:01:00,
2013-05-28 10:11:00,74.0,68.0,29.98,SSW,213,8.0,13.0,82,0.00,,,0.84,,2013-05-28 15:11:00,
2013-05-28 10:21:00,76.0,69.0,29.96,SSW,195,8.0,14.0,79,0.00,,,0.84,,2013-05-28 15:21:00,
2013-05-28 10:33:00,76.0,69.0,29.96,SE,140,6.0,14.0,78,0.00,,,0.84,,2013-05-28 15:33:00,
2013-05-28 10:43:00,76.0,69.0,29.96,SE,140,6.0,14.0,78,0.00,,,0.84,,2013-05-28 15:43:00,
2013-05-28 10:52:00,77.0,70.0,29.96,ESE,115,8.0,16.0,78,0.00,,,0.84,,2013-05-28 15:52:00,
2013-05-28 11:03:00,78.0,70.0,29.96,SSW,194,8.0,13.0,76,0.00,,,0.84,,2013-05-28 16:03:00,
2013-05-28 11:12:00,78.0,70.0,29.96,SSW,194,8.0,13.0,76,0.00,,,0.84,,2013-05-28 16:12:00,
2013-05-28 11:22:00,79.0,70.0,29.96,South,183,9.0,17.0,74,0.00,,,0.84,,2013-05-28 16:22:00,
2013-05-28 11:33:00,80.0,69.0,29.96,South,183,8.0,18.0,70,0.00,,,0.84,,2013-05-28 16:33:00,
2013-05-28 11:42:00,80.0,69.0,29.96,South,183,8.0,18.0,70,0.00,,,0.84,,2013-05-28 16:42:00,
2013-05-28 11:52:00,81.0,69.0,29.97,SW,220,12.0,20.0,66,0.00,,,0.84,,2013-05-28 16:52:00,
2013-05-28 12:02:00,81.0,69.0,29.98,South,175,11.0,21.0,67,0.00,,,0.84,,2013-05-28 17:02:00,
2013-05-28 12:12:00,81.0,69.0,29.98,South,175,11.0,21.0,67,0.00,,,0.84,,2013-05-28 17:12:00,
2013-05-28 12:22:00,81.0,69.0,29.98,South,175,11.0,21.0,67,0.00,,,0.84,,2013-05-28 17:22:00,
2013-05-28 12:32:00,81.0,68.0,29.98,SSW,194,10.0,17.0,65,0.00,,,0.84,,2013-05-28 17:32:00,
2013-05-28 12:42:00,81.0,69.0,29.98,SSW,200,9.0,19.0,67,0.00,,,0.84,,2013-05-28 17:42:00,
2013-05-28 12:52:00,81.0,69.0,29.98,SSW,200,9.0,19.0,67,0.00,,,0.84,,2013-05-28 17:52:00,
2013-05-28 13:01:00,82.0,68.0,29.98,SSW,195,1.0,12.0,62,0.00,,,0.84,,2013-05-28 18:01:00,
2013-05-28 13:11:00,82.0,68.0,29.98,SSW,195,1.0,12.0,62,0.00,,,0.84,,2013-05-28 18:11:00,
2013-05-28 13:21:00,82.0,68.0,29.98,SW,232,5.0,13.0,63,0.00,,,0.84,,2013-05-28 18:21:00,
2013-05-28 13:32:00,83.0,67.0,29.98,South,180,10.0,18.0,58,0.00,,,0.84,,2013-05-28 18:32:00,
2013-05-28 13:42:00,83.0,67.0,29.96,SSW,195,10.0,20.0,58,0.00,,,0.84,,2013-05-28 18:42:00,
2013-05-28 13:52:00,83.0,67.0,29.96,SSW,195,10.0,20.0,58,0.00,,,0.84,,2013-05-28 18:52:00,
2013-05-28 14:01:00,84.0,67.0,29.96,South,180,8.0,19.0,57,0.00,,,0.84,,2013-05-28 19:01:00,
2013-05-28 14:11:00,84.0,67.0,29.96,South,180,8.0,19.0,57,0.00,,,0.84,,2013-05-28 19:11:00,
2013-05-28 14:21:00,83.0,66.0,29.95,WSW,238,10.0,19.0,57,0.00,,,0.84,,2013-05-28 19:21:00,
2013-05-28 14:32:00,82.0,68.0,29.94,SSW,199,8.0,17.0,62,0.00,,,0.84,,2013-05-28 19:32:00,
2013-05-28 14:42:00,82.0,68.0,29.94,SSW,199,8.0,17.0,62,0.00,,,0.84,,2013-05-28 19:42:00,
2013-05-28 14:52:00,81.0,67.0,29.95,South,181,8.0,16.0,62,0.00,,,0.84,,2013-05-28 19:52:00,
2013-05-28 15:01:00,81.0,67.0,29.95,SSW,205,7.0,17.0,63,0.00,,,0.84,,2013-05-28 20:01:00,
2013-05-28 15:11:00,81.0,67.0,29.95,SSW,205,7.0,17.0,63,0.00,,,0.84,,2013-05-28 20:11:00,
2013-05-28 15:22:00,81.0,67.0,29.94,SSW,196,0.0,13.0,63,0.00,,,0.84,,2013-05-28 20:22:00,
2013-05-28 15:32:00,82.0,69.0,29.94,South,181,8.0,13.0,64,0.00,,,0.84,,2013-05-28 20:32:00,
2013-05-28 15:42:00,82.0,69.0,29.94,South,181,8.0,13.0,64,0.00,,,0.84,,2013-05-28 20:42:00,
2013-05-28 15:52:00,83.0,69.0,29.94,SSW,201,8.0,14.0,63,0.00,,,0.84,,2013-05-28 20:52:00,
2013-05-28 16:02:00,84.0,68.0,29.93,SSW,213,11.0,15.0,59,0.00,,,0.84,,2013-05-28 21:02:00,
2013-05-28 16:11:00,84.0,68.0,29.93,SSW,213,11.0,15.0,59,0.00,,,0.84,,2013-05-28 21:11:00,
2013-05-28 16:21:00,84.0,67.0,29.93,SSW,208,10.0,20.0,57,0.00,,,0.84,,2013-05-28 21:21:00,
2013-05-28 16:33:00,84.0,68.0,29.92,SE,134,11.0,20.0,58,0.00,,,0.84,,2013-05-28 21:33:00,
2013-05-28 16:43:00,84.0,68.0,29.92,SE,134,11.0,20.0,58,0.00,,,0.84,,2013-05-28 21:43:00,
2013-05-28 16:53:00,84.0,68.0,29.91,South,182,12.0,21.0,58,0.00,,,0.84,,2013-05-28 21:53:00,
2013-05-28 17:02:00,83.0,68.0,29.90,SSW,192,8.0,23.0,60,0.00,,,0.84,,2013-05-28 22:02:00,
2013-05-28 17:12:00,83.0,68.0,29.90,SSW,192,8.0,23.0,60,0.00,,,0.84,,2013-05-28 22:12:00,
2013-05-28 17:22:00,82.0,66.0,29.90,SSW,198,12.0,21.0,59,0.00,,,0.84,,2013-05-28 22:22:00,
2013-05-28 17:32:00,82.0,66.0,29.90,SSW,198,13.0,22.0,58,0.00,,,0.84,,2013-05-28 22:32:00,
2013-05-28 17:42:00,82.0,67.0,29.89,South,186,9.0,20.0,61,0.00,,,0.84,,2013-05-28 22:42:00,
2013-05-28 17:52:00,82.0,67.0,29.89,South,186,9.0,20.0,61,0.00,,,0.84,,2013-05-28 22:52:00,
2013-05-28 18:02:00,82.0,68.0,29.89,SSW,194,8.0,19.0,62,0.00,,,0.84,,2013-05-28 23:02:00,
2013-05-28 18:11:00,82.0,68.0,29.89,SSW,194,8.0,19.0,62,0.00,,,0.84,,2013-05-28 23:11:00,
2013-05-28 18:22:00,82.0,67.0,29.89,South,172,10.0,16.0,60,0.00,,,0.84,,2013-05-28 23:22:00,
2013-05-28 18:32:00,82.0,68.0,29.89,South,185,8.0,14.0,62,0.00,,,0.84,,2013-05-28 23:32:00,
2013-05-28 18:42:00,82.0,68.0,29.89,South,185,8.0,14.0,62,0.00,,,0.84,,2013-05-28 23:42:00,
2013-05-28 18:52:00,81.0,68.0,29.88,SSW,195,8.0,14.0,64,0.00,,,0.84,,2013-05-28 23:52:00,
2013-05-28 19:02:00,81.0,68.0,29.88,South,174,10.0,20.0,64,0.00,,,0.84,,2013-05-29 00:02:00,
2013-05-28 19:11:00,81.0,68.0,29.88,South,174,10.0,20.0,64,0.00,,,0.84,,2013-05-29 00:11:00,
2013-05-28 19:21:00,80.0,67.0,29.89,South,180,10.0,17.0,65,0.00,,,0.84,,2013-05-29 00:21:00,
2013-05-28 19:32:00,80.0,66.0,29.89,South,186,11.0,19.0,63,0.00,,,0.84,,2013-05-29 00:32:00,
2013-05-28 19:41:00,80.0,66.0,29.89,South,186,11.0,19.0,63,0.00,,,0.84,,2013-05-29 00:41:00,
2013-05-28 19:52:00,80.0,66.0,29.90,SSW,195,9.0,18.0,63,0.00,,,0.84,,2013-05-29 00:52:00,
2013-05-28 20:01:00,79.0,65.0,29.91,SE,138,6.0,14.0,63,0.00,,,0.84,,2013-05-29 01:01:00,
2013-05-28 20:11:00,79.0,65.0,29.91,SE,138,6.0,14.0,63,0.00,,,0.84,,2013-05-29 01:11:00,
2013-05-28 20:22:00,79.0,66.0,29.91,SSW,203,7.0,11.0,64,0.00,,,0.84,,2013-05-29 01:22:00,
2013-05-28 20:32:00,78.0,65.0,29.91,South,190,5.0,10.0,65,0.00,,,0.02,,2013-05-29 01:32:00,
2013-05-28 20:42:00,78.0,65.0,29.91,South,190,5.0,10.0,65,0.00,,,0.02,,2013-05-29 01:42:00,
2013-05-28 20:52:00,77.0,66.0,29.91,SSW,194,0.0,8.0,68,0.00,,,0.02,,2013-05-29 01:52:00,
2013-05-28 21:02:00,75.0,65.0,29.90,SSW,196,0.0,0.0,71,0.00,,,0.02,,2013-05-29 02:02:00,
2013-05-28 21:12:00,75.0,65.0,29.90,SSW,196,0.0,0.0,71,0.00,,,0.02,,2013-05-29 02:12:00,
2013-05-28 21:21:00,75.0,66.0,29.90,SSW,196,0.0,0.0,73,0.00,,,0.02,,2013-05-29 02:21:00,
2013-05-28 21:32:00,74.0,65.0,29.91,SSW,195,0.0,0.0,74,0.00,,,0.01,,2013-05-29 02:32:00,
2013-05-28 21:42:00,74.0,65.0,29.91,SSE,168,0.0,5.0,73,0.00,,,0.01,,2013-05-29 02:42:00,
2013-05-28 21:51:00,74.0,65.0,29.91,SSE,168,0.0,5.0,73,0.00,,,0.01,,2013-05-29 02:51:00,
2013-05-28 22:02:00,75.0,65.0,29.91,South,188,0.0,0.0,70,0.00,,,0.01,,2013-05-29 03:02:00,
2013-05-28 22:12:00,75.0,65.0,29.91,South,188,0.0,0.0,70,0.00,,,0.01,,2013-05-29 03:12:00,
2013-05-28 22:21:00,75.0,64.0,29.93,South,184,0.0,0.0,69,0.00,,,0.01,,2013-05-29 03:21:00,
2013-05-28 22:33:00,74.0,63.0,29.94,SSW,194,0.0,0.0,68,0.00,,,0.00,,2013-05-29 03:33:00,
2013-05-28 22:43:00,74.0,63.0,29.94,SSW,194,0.0,0.0,68,0.00,,,0.00,,2013-05-29 03:43:00,
2013-05-28 22:53:00,74.0,63.0,29.94,South,169,0.0,0.0,69,0.00,,,0.00,,2013-05-29 03:53:00,
2013-05-28 23:02:00,74.0,63.0,29.95,SSW,194,0.0,0.0,68,0.00,,,0.00,,2013-05-29 04:02:00,
2013-05-28 23:13:00,74.0,63.0,29.95,SSW,194,0.0,0.0,68,0.00,,,0.00,,2013-05-29 04:13:00,
2013-05-28 23:23:00,74.0,62.0,29.95,South,178,0.0,0.0,67,0.00,,,0.00,,2013-05-29 04:23:00,
2013-05-28 23:33:00,73.0,62.0,29.96,South,187,0.0,0.0,68,0.00,,,0.00,,2013-05-29 04:33:00,
2013-05-28 23:42:00,73.0,62.0,29.96,South,187,0.0,0.0,68,0.00,,,0.00,,2013-05-29 04:42:00,
2013-05-28 23:52:00,72.0,61.0,29.97,SSW,210,0.0,0.0,69,0.00,,,0.00,,2013-05-29 04:52:00,